Skip Page Navigation
NASA JPL Caltech
NASA Logo - Jet Propulsion Laboratory + View the NASA Portal
+ Center for Near-Earth Object Studies
JPL Home Earth Solar System Stars & Galaxies Technology
JPL Solar System Dynamics
BODIES ORBITS EPHEMERIDES TOOLS PHYSICAL DATA DISCOVERY FAQ SITE MAP
IMPORTANT: The SSD Announcement email list is now available. Major changes are coming in the near future, including possible hostname and/or URL changes. To be notified of such changes, subscribe to this email list.

Please visit this page for more details.


JPL Small-Body Database Browser
Search: [ help ]  
434112 (2002 PQ5)
Classification: Main-belt Asteroid          SPK-ID: 2434112
Ephemeris | Orbit Diagram | Orbital Elements | Mission Design | Physical Parameters | Discovery Circumstances ]

[ show orbit diagram ]
Orbital Elements at Epoch 2458600.5 (2019-Apr-27.0) TDB
Reference: JPL 9 (heliocentric ecliptic J2000)
 Element Value Uncertainty (1-sigma)   Units 
e .2396982816382544 8.4265e-08  
a 2.764197333443336 1.9092e-08 au
q 2.101623982507924 2.2864e-07 au
i 6.584890871478088 7.7573e-06 deg
node 241.7706171574799 7.4039e-05 deg
peri 98.24159751888405 7.5684e-05 deg
M 217.6555847735759 1.6249e-05 deg
tp 2459264.227671536872
(2021-Feb-18.72767154)
7.9744e-05 TDB
period 1678.618450700677
4.60
1.7391e-05
4.761e-08
d
yr
n .2144620773408819 2.2218e-09 deg/d
Q 3.426770684378749 2.3668e-08 au
  Orbit Determination Parameters
   # obs. used (total)      146  
   data-arc span      5656 days (15.49 yr)  
   first obs. used      2002-07-21  
   last obs. used      2018-01-14  
   planetary ephem.      DE431  
   SB-pert. ephem.      SB431-N16  
   condition code      0  
   norm. resid. RMS      .695  
   source      ORB  
   producer      Otto Matic  
   solution date      2019-Jul-13 16:48:54  

Additional Information
 Earth MOID = 1.1047 au 
 Jupiter MOID = 2.0519 au 
 T_jup = 3.288 
[ hide covariance matrix ]
Orbital Elements at Epoch 2456901.5 (2014-Sep-01.0) TDB
Reference: JPL 9 (heliocentric ecliptic J2000)
 Element Value Uncertainty (1-sigma)   Units 
e .23903908998869 8.4355e-08  
q 2.103934438661469 2.2882e-07 au
tp 2457586.345026156566
(2016-Jul-16.84502616)
7.0728e-05 TDB
node 241.7785427423252 7.4037e-05 deg
peri 98.45594910058422 7.5686e-05 deg
i 6.583877531194983 7.7568e-06 deg
  Orbit Determination Parameters
   # obs. used (total)      146  
   data-arc span      5656 days (15.49 yr)  
   first obs. used      2002-07-21  
   last obs. used      2018-01-14  
   planetary ephem.      DE431  
   SB-pert. ephem.      SB431-N16  
   condition code      0  
   norm. resid. RMS      .695  
   source      ORB  
   producer      Otto Matic  
   solution date      2019-Jul-13 16:48:54  

Additional Information
 Jupiter MOID = 2.0519 au 
 T_jup = 3.288 
Orbit Covariance (6×6)
  e q tp node peri i
e 7.115727435194751E-15 -1.926760314753706E-14 2.981398615508628E-12 -5.086400814836902E-14 6.535332393190413E-13 -2.110667446402067E-14
q -1.926760314753706E-14 5.236040200881628E-14 -7.809727513025684E-12 1.289783724413405E-13 -1.725711409332632E-12 5.827855165336417E-14
tp 2.981398615508628E-12 -7.809727513025684E-12 5.002432099809803E-9 -2.03883451423948E-11 1.195003691941422E-9 -1.274613591799322E-11
node -5.086400814836902E-14 1.289783724413405E-13 -2.03883451423948E-11 5.481420522651249E-9 -5.449679762030808E-9 -2.446962677623134E-10
peri 6.535332393190413E-13 -1.725711409332632E-12 1.195003691941422E-9 -5.449679762030808E-9 5.728393304835065E-9 2.403419373140744E-10
i -2.110667446402067E-14 5.827855165336417E-14 -1.274613591799322E-11 -2.446962677623134E-10 2.403419373140744E-10 6.016856306500484E-11

Ephemeris | Orbit Diagram | Orbital Elements | Mission Design | Physical Parameters | Discovery Circumstances ]

Physical Parameter Table
Parameter Symbol Value Units Sigma Reference Notes
absolute magnitude H 16.7   n/a MPO434582  

434112 (2002 PQ5)          Discovered 2002-Aug-04 by NEAT at Palomar
Reference: Last Updated: 2015-06-04
Ephemeris | Orbit Diagram | Orbital Elements | Mission Design | Physical Parameters | Discovery Circumstances ]
ABOUT SSD CREDITS/AWARDS PRIVACY/COPYRIGHT GLOSSARY LINKS
FirstGov 2019-Dec-07 04:29 UT
(server date/time)  
NASA Home Page
Site Manager:   Ryan S. Park
Webmaster  Alan B. Chamberlin